This demonstration page uses our WeatherBlox Daily Observations layout. Learn more.

Left ArrowRight Arrow

Hourly Observations for November 21, 2015

Temp ( °F °C ) Dew Point ( °F °C ) Humidity (%) Winds ( mph kmh ) Pressure ( in mb ) Visibility ( mi km ) Precip ( " mm )
12:53 am 00:53 Clear 22 -5.6 13 -10.6 68 68 SW 20 31 30.34 1028 10 16 N/A
1:53 am 01:53 Clear 23 -5 13 -10.6 65 65 SW 23 37 30.32 1027 10 16 N/A
2:53 am 02:53 Clear 24 -4.4 13 -10.6 62 62 SW 23 37 30.29 1026 10 16 N/A
3:53 am 03:53 Clear 26 -3.3 14 -10 60 60 SW 25 41 30.27 1025 10 16 N/A
4:53 am 04:53 Mostly Clear 27 -2.8 15 -9.4 61 61 SW 23 37 30.25 1024 10 16 N/A
5:53 am 05:53 Mostly Cloudy 28 -2.2 15 -9.4 58 58 SW 25 41 30.25 1024 10 16 N/A
6:53 am 06:53 Partly Cloudy 28 -2.2 15 -9.4 58 58 SW 21 33 30.25 1024 10 16 N/A
7:53 am 07:53 Mostly Cloudy 28 -2.2 16 -8.9 60 60 SW 21 33 30.24 1024 10 16 N/A
8:53 am 08:53 Mostly Sunny 30 -1.1 16 -8.9 56 56 SW 18 30 30.26 1025 10 16 N/A
9:53 am 09:53 Mostly Sunny 31 -0.6 17 -8.3 56 56 WSW 15 24 30.25 1024 10 16 N/A
10:53 am 10:53 Sunny 35 1.7 18 -7.8 50 50 SW 14 22 30.22 1024 10 16 N/A
11:53 am 11:53 Sunny 38 3.3 18 -7.8 44 44 SW 17 28 30.18 1022 10 16 N/A
12:53 pm 12:53 Sunny 41 5 18 -7.8 39 39 SSW 15 24 30.14 1021 10 16 N/A
1:14 pm 13:14 Sunny 43 6 14 -10 31 31 WSW 12 19 30.09 1019 10 16 N/A
1:53 pm 13:53 Sunny 42 5.6 15 -9.4 33 33 W 13 20 30.10 1019 10 16 N/A
2:53 pm 14:53 Sunny 42 5.6 15 -9.4 33 33 W 16 26 30.08 1019 10 16 N/A
3:53 pm 15:53 Sunny 38 3.3 16 -8.9 41 41 WSW 12 19 30.08 1019 10 16 N/A
4:53 pm 16:53 Clear 32 undefined 18 -7.8 56 56 SW 13 20 30.05 1018 10 16 N/A
5:53 pm 17:53 Clear 31 -0.6 18 -7.8 59 59 SW 15 24 30.04 1017 10 16 N/A
6:53 pm 18:53 Clear 30 -1.1 19 -7.2 64 64 SW 18 30 30.01 1016 10 16 N/A
7:53 pm 19:53 Mostly Cloudy 29 -1.7 18 -7.8 63 63 SW 20 31 30.00 1016 10 16 N/A
8:53 pm 20:53 Cloudy 32 undefined 20 -6.7 61 61 SW 18 30 29.98 1015 10 16 N/A
9:53 pm 21:53 Clear 33 0.6 18 -7.8 54 54 SW 23 37 29.95 1014 10 16 N/A
10:53 pm 22:53 Clear 34 1.1 19 -7.2 54 54 SW 24 39 29.93 1013 10 16 N/A
11:53 pm 23:53 Clear 35 1.7 21 -6.1 57 57 SW 21 33 29.91 1013 10 16 N/A

Powered by AerisWeather